User: anonymous   Login
Location: Unspecified
(0.0000°N, 0.0000°E)
Time: 15:42:49
(UTC+01:00)
Language:

Centaur AC-64 - Orbit

View from above orbital plane
View from above orbital plane
View from above satellite
View from above satellite

Ground track
Ground track

The orbit data is extracted from the following two-line orbital elements,

1 15874U 85055B   17021.68884393 +.00000740 +00000-0 +34239-3 0  9993
2 15874 022.9872 176.8308 6571845 051.3433 351.0454 03.18947260325782
Epoch (UTC): 21 January 2017 16:31:56
Eccentricity: 0.6571845
inclination: 22.9872°
perigee height: 305 km
apogee height: 25928 km
right ascension of ascending node: 176.8308°
argument of perigee: 51.3433°
revolutions per day: 3.18947260
mean anomaly at epoch: 351.0454°
orbit number at epoch: 32578

The dashed part of the orbit path shows where the satellite is in the earth's shadow,  

DLR